Location: Montreal
(45.5087°N, 73.5540°W)
Time: 18:32:20
(UTC-04:00)

Envisat - Pass Details

Date: 04 February 2023
Orbit: 763 x 765 km, 98.2° (Epoch: 20 March)

Event Time Altitude Azimuth Distance (km) Brightness Sun altitude
Rises 03:26:26 0° 20° (NNE) 3,242 6.7 -39.5°
Reaches altitude 10° 03:28:54 10° 28° (NNE) 2,311 5.9 -39.1°
Enters shadow 03:30:02 16° 35° (NE) 1,914 5.5 -38.9°
